Orbital Elements at Epoch 2459000.5 (2020-May-31.0) TDB
Reference: JPL 16 (heliocentric ecliptic J2000)
Element | Value | Uncertainty (1-sigma) | Units |
e | .02845836557957254 | 6.0268e-08 | |
a | 2.42469062974416 | 1.6226e-08 | au |
q | 2.355687897385537 | 1.4885e-07 | au |
i | 5.496000518611734 | 3.9097e-06 | deg |
node | 241.2191214415237 | 5.6492e-05 | deg |
peri | 308.297067150054 | 9.9281e-05 | deg |
M | .8988190306622516 | 7.9119e-05 | deg |
tp | 2458997.056875818797 (2020-May-27.55687582) | 0.00030309 | TDB |
period | 1379.059257701604 3.78 | 1.3843e-05 3.79e-08 | d yr |
n | .2610475206119791 | 2.6204e-09 | deg/d |
Q | 2.493693362102784 | 1.6688e-08 | au |
|
| | Orbit Determination Parameters
Additional Information
|